Vorticity
4 5 5 6 6 7 8 9 9 9 8 8 7 7 7 7 7 7 8 8 8 8 8 8 8 8 8 8 8 8 7 7 7 8 8 9 10 10 11 12 12 11 10 7 3 -1 -2 2 6 8 10 13 14 15 13 10 7 5 5 5 6 6 7 8 8 8 7 7 8
5 5 5 5 6 7 8 10 10 9 8 7 7 7 7 7 7 7 7 8 8 8 8 8 8 8 8 8 8 8 7 7 7 7 8 9 11 12 12 12 12 11 9 6 2 0 1 5 7 8 9 12 15 15 14 10 7 6 5 5 6 6 7 8 8 8 7 7 8
4 4 5 6 7 8 9 10 9 8 8 7 6 6 6 6 6 7 7 8 8 8 8 8 8 8 8 8 8 9 9 8 7 7 8 10 11 12 13 12 11 10 8 5 2 2 3 6 7 8 9 12 15 16 14 10 7 6 6 6 6 7 7 8 8 8 7 8 8
5 6 7 8 9 9 9 8 8 7 7 7 6 6 6 5 5 6 6 7 7 8 8 8 8 8 8 8 8 9 9 9 8 8 8 10 12 13 13 12 10 8 6 5 3 3 4 7 7 8 10 13 16 16 14 10 7 6 6 6 6 7 7 8 8 8 8 8 9
6 7 8 8 8 7 7 6 6 7 7 6 5 5 4 4 4 5 6 6 7 8 8 8 7 8 8 9 9 8 8 8 8 9 9 10 12 13 12 12 10 8 6 6 4 4 5 6 7 8 11 14 17 17 14 9 7 6 6 6 6 7 7 8 8 8 8 8 8
5 7 8 8 7 6 5 5 5 6 6 6 5 4 3 2 3 4 5 7 8 8 8 8 7 7 8 9 9 8 8 8 9 10 10 11 12 12 12 12 10 8 7 7 5 4 5 6 7 9 12 15 18 18 14 9 7 6 6 5 6 7 7 8 8 8 8 8 8
3 4 6 8 7 5 3 3 4 5 5 5 5 4 4 3 3 3 5 6 7 8 8 8 8 8 8 8 8 8 8 8 9 10 11 11 11 12 13 11 9 8 8 6 4 5 6 6 6 9 12 17 19 17 14 10 7 6 6 6 6 7 7 8 8 8 8 8 8
2 3 5 7 6 4 2 1 2 4 5 6 6 5 4 3 3 3 4 5 7 8 8 8 8 8 8 8 8 8 8 8 9 10 11 11 11 12 12 10 9 9 8 6 5 5 6 7 8 10 14 18 19 17 14 9 7 6 6 6 6 7 8 8 8 8 8 8 8
5 6 8 8 7 5 3 1 2 4 5 6 6 6 5 4 3 3 4 5 6 7 7 7 8 8 8 8 8 8 9 9 9 10 11 12 12 12 11 10 9 8 8 7 7 7 6 6 9 12 16 19 19 17 13 9 7 6 6 6 6 7 8 8 8 8 8 8 8
11 11 11 11 10 7 4 2 4 5 6 6 6 6 5 4 4 4 4 5 5 6 7 8 8 8 8 8 8 9 9 10 10 9 10 12 12 11 10 10 9 8 7 8 9 8 7 6 9 13 17 21 19 16 12 9 7 6 6 6 7 7 8 9 9 8 8 8 8
18 18 17 16 13 10 7 6 7 8 8 7 6 6 5 4 4 4 4 4 5 6 7 8 8 8 8 8 9 10 10 10 10 10 11 11 12 11 10 9 9 8 8 9 10 9 8 7 10 14 18 22 20 16 11 8 7 6 6 6 7 7 8 9 9 8 8 8 8
22 22 21 20 17 14 12 11 10 9 9 8 7 6 5 5 5 4 4 5 6 6 7 8 8 8 8 8 9 10 11 11 11 12 12 11 11 10 9 9 10 10 10 10 10 10 8 8 11 15 19 22 20 15 11 7 7 6 6 6 7 7 8 9 9 8 8 8 9
21 22 22 22 20 18 16 14 13 11 10 8 7 6 6 6 6 5 5 5 6 7 8 8 8 8 8 9 10 11 11 12 12 12 12 11 9 9 9 11 12 12 12 11 11 10 9 9 13 17 20 21 18 14 10 7 6 6 6 6 7 7 8 9 9 8 8 8 9
19 21 22 22 22 20 19 16 14 12 10 9 8 7 7 7 7 7 7 6 7 8 8 8 9 9 9 10 10 11 12 12 12 12 12 10 9 9 11 13 14 14 13 11 10 9 9 10 14 18 20 20 17 13 10 7 6 6 6 6 7 7 8 9 8 8 8 8 9
18 20 21 21 21 20 19 17 15 13 12 11 11 11 10 10 9 8 7 7 8 9 10 9 10 11 11 11 11 12 12 13 13 12 11 8 9 11 13 14 15 14 13 11 10 9 9 11 15 19 21 20 15 12 9 7 6 6 6 6 7 7 8 8 8 8 8 8 9
18 19 20 20 20 19 19 18 17 16 16 16 15 14 13 11 9 8 8 8 9 10 10 10 11 12 13 13 13 13 13 14 14 12 10 7 9 12 15 16 15 15 14 12 10 9 10 12 16 19 21 19 14 11 8 6 6 6 6 6 7 7 8 8 8 8 8 8 9
16 16 17 17 18 18 18 18 18 18 18 17 16 13 10 8 7 7 7 8 9 9 9 10 12 12 13 13 15 15 15 15 15 13 10 8 10 13 16 17 17 16 15 13 10 9 9 12 17 20 21 18 14 10 7 6 6 6 6 6 7 7 8 8 8 8 8 9 9
12 12 13 13 14 15 15 16 16 15 14 12 10 7 5 4 5 6 6 6 6 6 6 7 9 11 13 14 16 17 17 16 15 12 10 10 13 15 17 18 19 18 17 15 11 9 9 12 17 20 21 18 13 10 7 6 6 6 6 6 7 7 8 8 8 8 8 9 9
7 7 8 8 9 10 10 10 10 9 7 5 3 2 2 3 4 5 5 4 4 4 4 4 6 9 13 15 16 17 18 17 13 11 10 12 15 18 19 20 21 20 19 16 12 9 10 13 18 20 20 17 12 9 7 6 6 6 6 6 7 7 8 8 8 8 9 9 9
2 2 2 4 4 4 4 4 3 2 1 0 0 1 2 3 4 4 3 2 2 2 3 3 6 9 12 16 17 18 18 17 12 10 11 14 18 20 21 22 21 21 19 16 12 10 10 14 19 20 19 15 11 8 7 6 6 6 6 6 7 7 8 8 8 8 9 9 9
4 2 2 2 2 2 0 -1 -2 -2 -2 -1 -0 0 0 0 0 1 1 -0 -1 0 2 5 8 11 14 16 18 18 17 14 12 11 13 17 20 21 22 22 21 20 18 15 12 10 11 15 19 20 18 15 11 8 6 6 6 6 6 6 7 7 8 8 8 8 9 9 9
12 10 7 4 2 -1 -3 -4 -5 -5 -5 -4 -4 -4 -5 -5 -5 -3 -3 -3 -2 -0 3 5 9 13 17 19 19 18 15 12 13 14 16 19 21 22 21 21 20 18 17 14 11 11 12 16 20 20 18 14 10 8 6 5 6 6 6 6 7 7 7 8 8 8 8 9 9
16 14 10 4 -1 -4 -6 -7 -8 -8 -8 -8 -8 -9 -9 -9 -8 -6 -3 -1 0 2 4 6 10 15 18 20 19 16 14 13 14 16 19 22 23 22 21 20 19 18 16 13 11 11 13 17 20 20 17 13 9 7 6 5 6 6 6 6 6 7 7 8 8 8 8 9 9
18 15 10 3 -2 -5 -7 -7 -6 -6 -6 -5 -6 -6 -6 -6 -4 -2 1 3 4 5 6 8 13 16 19 19 18 17 16 16 18 21 23 25 25 24 22 20 19 17 15 12 11 11 14 18 19 18 16 12 9 7 6 5 6 6 6 6 6 7 7 8 8 8 8 9 9
10 8 4 0 -1 0 2 4 4 4 4 4 5 5 5 5 6 7 8 9 9 10 11 13 16 18 19 18 18 18 19 20 23 25 27 27 26 24 23 21 19 17 14 11 10 12 15 19 20 18 14 11 8 6 6 6 6 6 6 6 6 6 7 7 8 8 9 9 9
-10 -8 -6 -3 1 6 10 12 11 11 10 10 11 13 14 15 16 16 16 15 15 16 16 17 19 20 20 19 19 20 21 23 24 25 25 25 24 23 22 21 19 17 14 11 10 12 15 19 20 18 14 10 8 6 5 5 6 6 6 6 6 6 7 7 7 8 9 9 9
-8 -7 -4 0 5 8 10 9 9 8 9 11 13 16 18 21 22 22 22 21 21 21 21 21 23 24 24 24 23 24 24 25 24 22 21 20 20 20 20 20 19 17 14 12 11 12 15 18 19 17 14 10 7 6 5 5 5 5 5 6 6 7 7 7 7 7 7 8 9
16 12 9 8 7 7 6 5 6 7 10 12 15 18 21 24 25 25 25 26 26 26 26 26 28 28 27 26 26 26 26 25 23 21 19 18 17 17 17 18 18 17 15 12 11 12 15 18 19 17 14 9 7 5 5 5 5 6 6 6 6 7 7 6 6 6 7 8 10
19 16 12 9 7 6 7 8 10 12 14 17 20 22 24 26 26 26 27 29 30 32 32 31 30 28 26 25 25 24 23 22 21 20 19 18 17 16 16 17 17 16 14 12 11 13 15 19 19 16 13 9 6 5 5 5 5 6 6 6 6 6 6 5 6 7 8 9 10
9 9 10 10 10 11 13 15 16 18 21 23 24 25 26 26 27 28 30 33 34 34 32 30 27 24 23 22 21 20 20 19 18 18 18 17 17 16 16 16 16 15 13 11 11 13 16 19 19 16 12 8 6 5 5 5 5 5 6 6 6 6 6 6 6 7 8 9 10
9 11 14 16 17 19 20 21 22 23 24 25 25 26 27 28 29 31 33 34 32 28 24 21 19 18 18 17 17 16 16 16 16 16 16 16 15 15 15 15 15 14 13 11 11 14 17 20 18 15 11 7 6 5 5 5 5 5 5 6 6 6 6 6 6 7 8 8 10
15 18 21 22 24 24 24 23 23 24 24 24 25 27 28 29 30 30 29 27 23 19 15 13 14 15 16 16 17 16 15 15 15 15 15 14 13 14 14 15 15 14 12 11 12 15 18 20 18 14 10 7 5 5 5 5 5 5 5 6 6 6 6 6 6 7 7 8 9
21 23 25 26 25 24 22 21 21 22 23 24 26 27 27 27 26 23 20 17 14 11 11 11 13 14 15 16 16 16 16 16 16 16 15 14 13 13 14 15 15 14 13 11 13 16 19 20 17 13 10 6 5 5 5 5 4 4 5 5 6 6 6 6 6 7 7 8 9
24 25 25 24 22 20 19 19 20 22 23 24 24 23 22 20 18 15 13 11 11 11 11 12 13 14 14 14 14 15 16 17 18 17 16 14 13 13 14 15 15 14 13 12 14 16 19 20 16 13 9 6 5 5 4 5 4 4 5 5 6 6 6 6 6 7 7 8 9
25 24 23 21 19 18 19 21 22 22 22 21 19 17 15 14 13 12 12 12 12 12 12 13 12 12 12 13 15 16 17 18 18 17 15 13 12 12 13 14 14 13 12 12 14 17 19 19 16 12 8 6 5 5 5 4 4 4 5 5 6 6 6 6 6 7 7 8 9
24 22 20 19 20 21 22 22 21 19 17 15 13 12 12 12 13 13 13 14 14 13 12 11 10 10 11 13 16 18 19 19 18 16 14 12 12 12 13 14 13 12 12 13 15 18 20 19 15 11 8 5 5 5 5 4 4 4 5 5 6 6 6 6 6 6 7 8 9
25 23 22 22 22 21 20 18 16 14 12 11 11 12 12 13 14 14 14 15 14 12 10 9 9 10 11 12 15 18 20 20 18 15 14 13 12 13 13 14 13 12 12 14 16 19 20 19 15 11 7 5 5 5 5 4 4 4 5 5 6 6 6 6 6 7 7 8 9
25 24 22 21 19 16 14 12 11 10 10 10 11 11 12 13 12 13 13 14 13 12 10 9 9 10 11 12 14 16 19 21 19 16 14 13 13 13 13 13 13 12 13 15 17 19 20 18 14 10 7 6 5 5 4 4 4 4 5 5 6 6 6 6 6 7 8 8 9
20 18 16 14 12 10 8 7 7 8 8 8 9 10 10 11 11 11 12 13 12 11 11 10 10 11 11 11 13 16 19 22 20 17 15 13 13 12 12 12 12 13 14 16 18 20 20 17 13 10 7 6 5 4 4 4 4 5 5 6 6 6 6 6 7 7 8 8 9
11 10 8 7 6 5 4 4 5 6 7 7 8 9 10 10 10 10 11 12 12 12 12 12 12 11 11 12 13 16 19 22 21 18 16 13 12 12 11 12 12 13 14 17 19 20 19 16 13 9 7 6 5 4 4 4 4 5 5 6 5 5 6 6 7 8 8 8 9
5 4 3 3 3 3 3 4 5 6 8 9 10 10 9 9 10 10 11 12 12 13 13 13 13 12 12 13 14 16 19 21 21 19 15 12 11 11 11 12 13 14 15 18 19 20 18 16 12 9 7 6 5 4 4 4 4 5 5 5 5 5 6 7 8 8 8 8 8
Height
3068 3067 3066 3065 3064 3063 3062 3061 3060 3059 3057 3056 3055 3054 3053 3051 3050 3048 3048 3046 3045 3043 3042 3041 3040 3038 3037 3035 3034 3032 3031 3029 3028 3026 3025 3023 3022 3021 3019 3018 3016 3014 3012 3010 3010 3009 3009 3009 3008 3008 3007 3006 3005 3003 3002 3000 2999 2998 2996 2995 2994 2993 2992 2990 2989 2988 2986 2984 2982
3065 3064 3063 3062 3061 3060 3059 3058 3057 3055 3054 3053 3052 3050 3049 3048 3047 3045 3044 3043 3042 3041 3039 3038 3037 3035 3033 3032 3031 3029 3027 3026 3024 3023 3022 3020 3018 3017 3016 3014 3012 3010 3008 3007 3007 3007 3007 3006 3006 3005 3004 3003 3002 3001 2999 2998 2996 2995 2994 2993 2992 2990 2989 2988 2987 2985 2983 2982 2980
3062 3060 3059 3058 3057 3056 3055 3054 3053 3052 3051 3049 3048 3047 3046 3045 3044 3043 3041 3040 3039 3038 3036 3035 3033 3032 3031 3029 3027 3026 3024 3023 3021 3019 3018 3017 3015 3014 3012 3010 3008 3007 3005 3004 3004 3004 3004 3003 3003 3002 3001 3000 2999 2998 2997 2995 2993 2993 2992 2990 2989 2988 2987 2986 2984 2983 2981 2980 2978
3058 3057 3056 3055 3053 3053 3052 3050 3049 3048 3047 3046 3045 3044 3043 3042 3041 3039 3038 3037 3036 3034 3033 3032 3030 3029 3027 3026 3024 3023 3021 3019 3018 3016 3014 3013 3012 3010 3008 3007 3005 3003 3002 3001 3002 3002 3001 3001 3000 2999 2998 2997 2996 2995 2994 2993 2991 2990 2989 2988 2987 2986 2984 2983 2982 2980 2979 2978 2976
3055 3054 3053 3052 3051 3049 3048 3047 3046 3045 3044 3043 3041 3040 3039 3038 3037 3036 3035 3034 3033 3032 3030 3028 3027 3026 3024 3023 3021 3019 3018 3016 3014 3013 3011 3010 3008 3007 3005 3003 3001 3000 2999 2999 2999 2999 2998 2998 2997 2996 2995 2994 2993 2992 2991 2990 2988 2988 2987 2986 2984 2983 2982 2981 2979 2978 2977 2975 2974
3053 3052 3050 3049 3048 3047 3045 3044 3043 3042 3041 3039 3038 3037 3036 3035 3034 3033 3032 3031 3030 3028 3027 3025 3024 3023 3021 3019 3018 3016 3014 3013 3011 3009 3008 3006 3004 3003 3001 2999 2998 2997 2996 2996 2997 2996 2996 2995 2994 2993 2992 2991 2990 2989 2988 2987 2986 2985 2984 2983 2982 2981 2980 2978 2977 2976 2974 2973 2972
3049 3048 3048 3046 3045 3044 3042 3041 3040 3038 3037 3036 3035 3034 3033 3032 3031 3030 3029 3028 3027 3025 3024 3023 3021 3019 3018 3016 3014 3013 3011 3009 3008 3006 3004 3003 3001 2999 2998 2996 2994 2993 2993 2994 2994 2993 2993 2992 2991 2990 2989 2988 2988 2987 2986 2985 2983 2983 2982 2981 2980 2979 2978 2976 2975 2973 2972 2971 2970
3046 3045 3044 3043 3042 3040 3039 3038 3036 3035 3034 3033 3031 3030 3029 3028 3027 3026 3025 3024 3023 3022 3021 3019 3018 3016 3014 3013 3011 3009 3008 3006 3004 3003 3001 2999 2997 2995 2994 2992 2991 2991 2991 2991 2991 2990 2990 2989 2988 2987 2986 2986 2985 2984 2983 2982 2981 2980 2979 2978 2977 2976 2975 2974 2972 2971 2970 2968 2967
3042 3041 3040 3039 3038 3037 3035 3034 3033 3031 3030 3029 3028 3027 3026 3025 3024 3023 3022 3021 3020 3019 3017 3016 3014 3013 3011 3009 3008 3006 3004 3002 3001 2999 2997 2995 2993 2992 2990 2989 2988 2988 2988 2989 2988 2988 2987 2986 2985 2984 2983 2983 2982 2981 2980 2980 2978 2978 2977 2976 2975 2974 2973 2972 2970 2968 2967 2966 2965
3038 3038 3036 3035 3034 3033 3032 3030 3029 3028 3027 3026 3024 3023 3022 3021 3020 3019 3019 3018 3017 3015 3013 3012 3011 3009 3007 3006 3004 3002 3000 2999 2997 2995 2993 2991 2990 2988 2987 2986 2986 2986 2986 2986 2985 2984 2983 2983 2982 2981 2981 2980 2979 2978 2978 2977 2976 2975 2974 2973 2973 2972 2971 2969 2968 2966 2965 2964 2963
3035 3034 3033 3032 3030 3029 3028 3027 3026 3024 3023 3022 3021 3020 3019 3018 3017 3016 3015 3014 3013 3011 3010 3008 3007 3005 3003 3002 3000 2998 2997 2995 2993 2992 2989 2988 2986 2984 2983 2983 2983 2983 2983 2983 2982 2981 2980 2980 2979 2978 2978 2977 2977 2976 2975 2974 2973 2973 2972 2971 2970 2969 2968 2967 2966 2964 2963 2962 2960
3031 3030 3029 3028 3027 3026 3025 3023 3022 3021 3020 3018 3018 3016 3015 3014 3013 3013 3012 3010 3009 3008 3007 3005 3003 3001 3000 2998 2997 2995 2993 2992 2990 2988 2986 2984 2982 2981 2981 2981 2981 2981 2981 2980 2979 2978 2978 2977 2976 2976 2975 2975 2974 2973 2973 2972 2971 2970 2969 2969 2968 2967 2966 2965 2963 2962 2960 2959 2958
3028 3026 3026 3025 3024 3023 3021 3020 3019 3018 3017 3015 3014 3013 3012 3011 3010 3009 3008 3007 3006 3004 3003 3001 2999 2998 2996 2994 2993 2991 2990 2988 2986 2984 2982 2980 2979 2978 2978 2978 2978 2978 2978 2977 2976 2975 2974 2974 2973 2973 2973 2972 2971 2971 2970 2969 2968 2968 2967 2966 2965 2965 2964 2963 2961 2959 2958 2957 2956
3024 3023 3022 3021 3020 3019 3018 3017 3016 3014 3013 3012 3011 3010 3009 3008 3007 3006 3005 3004 3002 3001 2999 2997 2996 2994 2993 2991 2989 2988 2986 2984 2982 2980 2978 2977 2975 2975 2975 2975 2975 2975 2974 2974 2973 2973 2972 2971 2971 2970 2970 2969 2969 2968 2968 2967 2966 2965 2964 2964 2963 2962 2961 2960 2959 2957 2956 2954 2953
3021 3020 3019 3018 3017 3016 3015 3013 3012 3011 3010 3009 3008 3007 3006 3005 3004 3003 3002 3000 2998 2997 2995 2994 2992 2991 2989 2987 2985 2983 2982 2980 2978 2976 2974 2973 2972 2972 2972 2972 2972 2972 2971 2971 2970 2970 2969 2968 2968 2968 2967 2967 2966 2966 2965 2964 2963 2963 2962 2961 2961 2960 2959 2958 2957 2955 2954 2953 2951
3018 3017 3016 3015 3013 3013 3011 3010 3009 3008 3007 3006 3005 3004 3003 3002 3001 3000 2998 2997 2995 2993 2992 2990 2989 2987 2985 2983 2982 2980 2978 2976 2974 2972 2971 2969 2969 2969 2969 2969 2969 2969 2968 2968 2967 2967 2966 2966 2965 2965 2964 2964 2963 2963 2963 2962 2961 2960 2959 2959 2958 2958 2957 2956 2954 2953 2952 2950 2949
3015 3013 3012 3011 3010 3009 3008 3007 3006 3005 3004 3003 3002 3001 3000 2999 2998 2996 2995 2993 2992 2990 2988 2987 2985 2983 2981 2979 2978 2976 2974 2972 2970 2968 2967 2967 2966 2966 2966 2966 2966 2966 2965 2965 2965 2964 2964 2963 2963 2962 2962 2961 2961 2961 2960 2959 2958 2958 2957 2957 2956 2955 2954 2953 2952 2951 2949 2948 2947
3012 3011 3009 3008 3007 3006 3005 3004 3003 3002 3001 3000 2999 2998 2997 2996 2994 2993 2992 2990 2988 2987 2985 2983 2982 2979 2978 2975 2973 2972 2970 2968 2967 2965 2964 2964 2964 2963 2963 2963 2963 2963 2963 2962 2962 2962 2961 2960 2960 2959 2959 2959 2958 2958 2958 2957 2956 2955 2955 2954 2954 2953 2952 2951 2950 2948 2947 2946 2945
3010 3008 3007 3006 3005 3003 3002 3001 3000 2999 2998 2997 2996 2995 2994 2993 2991 2990 2988 2987 2985 2983 2981 2979 2978 2976 2973 2972 2970 2968 2966 2965 2963 2962 2962 2961 2961 2961 2960 2960 2960 2960 2960 2959 2959 2959 2958 2958 2957 2957 2956 2956 2956 2956 2955 2954 2954 2953 2953 2952 2952 2951 2950 2949 2948 2946 2945 2944 2943
3008 3006 3005 3003 3002 3001 3000 2998 2997 2996 2995 2994 2993 2992 2991 2989 2988 2987 2985 2983 2981 2979 2978 2975 2973 2972 2970 2968 2966 2964 2963 2961 2960 2959 2959 2958 2958 2958 2958 2958 2957 2957 2957 2957 2956 2956 2956 2955 2955 2954 2954 2953 2953 2953 2953 2952 2951 2951 2950 2950 2949 2949 2948 2947 2945 2944 2943 2942 2940
3005 3004 3002 3001 3000 2998 2997 2996 2994 2993 2992 2991 2990 2989 2988 2986 2985 2983 2981 2979 2977 2975 2973 2972 2970 2968 2966 2964 2962 2960 2959 2958 2957 2957 2956 2956 2955 2955 2955 2955 2954 2954 2954 2954 2954 2953 2953 2953 2952 2951 2951 2951 2951 2951 2950 2950 2949 2948 2948 2948 2947 2947 2946 2944 2943 2942 2941 2939 2938
3003 3001 2999 2998 2997 2995 2994 2993 2992 2991 2990 2989 2988 2986 2984 2983 2981 2979 2977 2975 2973 2971 2969 2968 2966 2964 2962 2960 2958 2957 2956 2955 2954 2954 2953 2953 2952 2952 2952 2952 2952 2951 2951 2951 2951 2951 2950 2950 2949 2949 2948 2948 2948 2948 2948 2947 2947 2946 2946 2945 2945 2944 2943 2942 2941 2940 2939 2938 2936
3000 2998 2997 2995 2993 2993 2991 2990 2989 2988 2987 2986 2984 2983 2981 2979 2977 2975 2973 2971 2969 2967 2965 2963 2962 2960 2958 2956 2954 2953 2953 2952 2952 2951 2951 2950 2949 2949 2949 2949 2949 2949 2948 2948 2948 2948 2948 2947 2947 2946 2946 2946 2946 2946 2945 2945 2944 2944 2943 2943 2943 2942 2941 2940 2939 2938 2937 2935 2934
2997 2995 2993 2992 2990 2989 2988 2988 2986 2985 2984 2982 2981 2979 2977 2975 2973 2971 2968 2966 2964 2963 2961 2959 2958 2956 2954 2952 2951 2950 2950 2949 2949 2948 2948 2947 2947 2947 2946 2946 2946 2946 2946 2946 2946 2945 2945 2944 2944 2943 2943 2943 2943 2943 2943 2943 2942 2942 2941 2941 2941 2940 2939 2938 2937 2936 2934 2933 2932
2993 2992 2990 2989 2987 2986 2985 2984 2982 2981 2980 2978 2976 2974 2972 2970 2968 2966 2964 2962 2960 2958 2956 2955 2953 2952 2950 2949 2948 2948 2947 2947 2946 2945 2945 2944 2944 2944 2943 2943 2943 2943 2943 2943 2943 2943 2942 2942 2941 2941 2941 2941 2941 2941 2941 2940 2940 2939 2939 2939 2938 2938 2937 2936 2935 2934 2933 2931 2930
2989 2988 2986 2985 2984 2982 2981 2979 2978 2977 2975 2973 2971 2969 2967 2965 2963 2961 2959 2957 2955 2953 2952 2950 2949 2948 2947 2947 2946 2945 2944 2944 2943 2943 2942 2942 2941 2941 2941 2940 2940 2941 2941 2941 2941 2940 2940 2939 2939 2938 2938 2938 2938 2938 2938 2938 2938 2937 2937 2937 2936 2936 2935 2934 2933 2932 2931 2929 2928
2985 2983 2982 2981 2980 2978 2977 2975 2974 2972 2970 2968 2966 2964 2962 2960 2958 2956 2954 2953 2951 2949 2948 2947 2946 2945 2945 2944 2943 2942 2941 2941 2940 2940 2939 2939 2938 2938 2938 2938 2938 2938 2938 2938 2938 2938 2937 2937 2936 2936 2936 2936 2936 2936 2936 2935 2935 2935 2934 2934 2934 2933 2933 2932 2931 2930 2929 2928 2927
2981 2980 2978 2977 2976 2974 2973 2971 2969 2967 2965 2963 2961 2959 2957 2956 2954 2952 2950 2948 2947 2946 2945 2944 2943 2943 2942 2941 2940 2939 2938 2938 2937 2937 2936 2936 2936 2935 2935 2935 2935 2935 2936 2936 2935 2935 2934 2934 2934 2934 2934 2934 2934 2934 2934 2933 2933 2933 2932 2932 2932 2931 2930 2930 2929 2928 2927 2926 2925
2978 2977 2975 2974 2972 2970 2968 2966 2964 2962 2960 2958 2956 2955 2953 2952 2950 2948 2947 2945 2944 2943 2943 2942 2941 2940 2938 2938 2937 2936 2936 2935 2934 2934 2933 2933 2933 2933 2933 2933 2933 2933 2933 2933 2933 2932 2932 2932 2931 2931 2931 2931 2932 2932 2932 2932 2931 2931 2931 2930 2930 2929 2929 2928 2927 2926 2925 2924 2923
2975 2973 2972 2970 2968 2966 2964 2962 2960 2958 2956 2954 2952 2951 2949 2948 2946 2945 2943 2942 2942 2941 2940 2939 2938 2937 2936 2935 2934 2933 2933 2932 2931 2931 2931 2930 2930 2930 2930 2930 2930 2930 2930 2930 2930 2930 2929 2929 2929 2929 2929 2929 2929 2929 2929 2929 2929 2929 2928 2928 2928 2927 2927 2926 2925 2923 2923 2922 2920
2971 2969 2967 2965 2963 2961 2959 2957 2955 2953 2952 2950 2948 2947 2946 2944 2943 2942 2941 2940 2939 2938 2937 2936 2935 2934 2933 2932 2931 2930 2929 2929 2929 2928 2928 2928 2928 2928 2928 2928 2928 2928 2928 2928 2927 2927 2927 2927 2927 2927 2927 2926 2926 2927 2927 2927 2927 2926 2926 2926 2926 2925 2924 2923 2922 2921 2920 2919 2918
2967 2965 2963 2961 2959 2957 2955 2953 2951 2950 2948 2947 2945 2943 2942 2941 2940 2939 2938 2938 2937 2935 2934 2933 2932 2931 2930 2929 2928 2927 2927 2926 2926 2926 2925 2925 2925 2925 2925 2925 2925 2925 2925 2925 2925 2924 2924 2924 2924 2924 2924 2924 2924 2924 2924 2924 2924 2924 2924 2923 2923 2922 2922 2921 2920 2919 2918 2917 2915
2963 2960 2958 2957 2955 2953 2951 2949 2948 2946 2945 2943 2942 2941 2940 2939 2938 2937 2936 2935 2934 2933 2932 2931 2929 2928 2927 2926 2925 2924 2924 2923 2923 2923 2923 2923 2923 2923 2922 2922 2922 2923 2923 2923 2922 2922 2922 2922 2922 2922 2922 2922 2922 2922 2922 2922 2922 2922 2922 2921 2921 2920 2919 2918 2918 2916 2915 2914 2913
2958 2956 2954 2953 2951 2949 2948 2946 2945 2943 2942 2940 2939 2938 2938 2937 2936 2935 2934 2933 2931 2930 2929 2928 2926 2925 2924 2923 2923 2922 2921 2921 2921 2921 2920 2920 2920 2920 2920 2919 2920 2920 2920 2920 2920 2919 2919 2919 2920 2920 2920 2920 2919 2919 2920 2920 2919 2919 2919 2919 2918 2918 2917 2916 2915 2914 2913 2912 2911
2954 2952 2951 2949 2948 2946 2945 2943 2942 2940 2939 2938 2938 2937 2936 2935 2933 2933 2931 2930 2929 2928 2926 2925 2924 2923 2921 2920 2920 2919 2919 2918 2918 2918 2918 2918 2918 2917 2917 2917 2917 2918 2918 2918 2917 2917 2917 2917 2917 2918 2918 2918 2918 2918 2918 2918 2917 2917 2917 2917 2916 2915 2915 2914 2913 2912 2911 2910 2909
2951 2949 2948 2946 2945 2943 2942 2941 2940 2938 2938 2937 2935 2934 2933 2932 2931 2930 2929 2928 2926 2925 2924 2923 2921 2920 2919 2918 2917 2917 2916 2916 2916 2915 2915 2915 2915 2914 2914 2915 2915 2915 2915 2915 2915 2915 2915 2915 2915 2915 2915 2915 2915 2915 2915 2915 2915 2915 2915 2914 2914 2913 2913 2912 2911 2909 2908 2908 2907
2948 2947 2945 2944 2943 2942 2940 2939 2938 2937 2936 2934 2933 2932 2931 2930 2929 2928 2927 2925 2924 2923 2922 2921 2919 2918 2917 2916 2915 2914 2913 2913 2913 2913 2913 2912 2912 2912 2912 2912 2913 2913 2913 2913 2912 2912 2913 2913 2913 2913 2913 2913 2913 2913 2913 2913 2913 2913 2913 2912 2912 2911 2910 2909 2908 2908 2907 2906 2904
2946 2945 2944 2942 2941 2940 2938 2937 2936 2935 2934 2933 2931 2930 2929 2928 2927 2926 2924 2923 2922 2921 2920 2918 2917 2916 2914 2913 2912 2911 2911 2910 2910 2910 2910 2910 2910 2910 2910 2910 2910 2910 2910 2910 2910 2910 2910 2910 2911 2911 2911 2911 2911 2911 2911 2911 2911 2911 2910 2910 2910 2909 2908 2908 2907 2906 2905 2903 2903
2945 2943 2942 2940 2939 2938 2937 2935 2934 2933 2932 2931 2929 2928 2927 2926 2925 2923 2923 2921 2920 2919 2918 2916 2915 2913 2912 2911 2910 2909 2908 2908 2908 2907 2907 2907 2908 2908 2908 2908 2908 2908 2908 2908 2908 2908 2908 2908 2908 2908 2909 2909 2909 2909 2909 2909 2909 2908 2908 2908 2908 2907 2906 2906 2905 2904 2903 2902 2901
2943 2942 2940 2938 2937 2936 2935 2933 2932 2931 2930 2928 2928 2926 2925 2924 2923 2922 2920 2919 2918 2917 2915 2914 2913 2911 2909 2908 2907 2906 2906 2905 2905 2905 2905 2905 2905 2905 2905 2905 2905 2906 2906 2905 2905 2905 2906 2906 2906 2907 2907 2907 2907 2907 2907 2907 2907 2907 2907 2906 2906 2905 2904 2904 2903 2902 2901 2900 2899
2941 2940 2938 2937 2935 2934 2933 2932 2930 2929 2928 2927 2925 2924 2923 2922 2921 2919 2918 2917 2915 2914 2913 2911 2910 2908 2907 2906 2905 2904 2903 2903 2903 2903 2903 2903 2903 2903 2903 2903 2903 2903 2903 2903 2903 2903 2903 2904 2904 2904 2905 2905 2905 2905 2905 2905 2905 2905 2905 2904 2904 2903 2903 2902 2901 2900 2899 2898 2897